Current Weather Conditions: station 62118

sailwx.info

Wind from 270 at 20 knots

Wave height 2.4 meters (7 feet), 6 second period

Air temperature 5.8° C
Visibility: greater than 10.8 NM
Dewpoint 0.5° C

Last reported at 2020-Feb-18 23:00 UTC.
Time now 2020-Feb-19 00:46 UTC

Location: N 57°42' E 000°54'.
View on Google Maps.

See reports from other nearby stations

  
Tides and Currents Weather Stations Pressure Air Temp Water Temp Dewpoint Dewpoint Depression Visibility Wind Speed Wind Dir Waves Ship Positions
date/time (UTC)wind fromknots sea level pressurealtimeterstation pressurevisibilityair tempwater tempwave heightnotes
2020-Feb-18 23:00 270 20 10.8 5.8 2.4
2020-Feb-18 22:00 270 20 10.8 6.3 2.7
2020-Feb-18 21:00 250 18 10.8 8.0 2.6
2020-Feb-18 20:00 240 19 10.8 9.1 2.7
2020-Feb-18 19:00 230 20 10.8 9.2 2.9
2020-Feb-18 18:00 240 20 10.8 8.1 2.9
2020-Feb-18 17:00 250 21 10.8 7.6 3.1
2020-Feb-18 16:00 250 22 10.8 7.5 3.0
2020-Feb-18 15:00 240 25 10.8 8.9 3.5
2020-Feb-18 14:00 240 29 10.8 8.6 3.3
2020-Feb-18 13:00 230 28 10.8 8.1 3.4
2020-Feb-18 12:00 240 29 10.8 9.7 3.7
2020-Feb-18 11:00 240 28 10.8 9.8 3.5
2020-Feb-18 10:00 240 27 10.8 9.9 3.4
2020-Feb-18 09:00 240 29 10.8 9.8 3.5
2020-Feb-18 08:00 240 29 10.8 7.9 3.4
2020-Feb-18 07:00 240 31 10.8 7.6 3.4
2020-Feb-18 06:00 240 29 10.8 7.9 3.3
2020-Feb-18 05:00 240 29 10.8 7.8 3.2
2020-Feb-18 04:00 250 26 10.8 7.6 3.4
2020-Feb-18 03:00 250 27 10.8 9.0 3.4
2020-Feb-18 02:00 250 27 10.8 9.1 3.6
2020-Feb-18 01:00 260 27 10.8 9.4 3.6
2020-Feb-18 00:00 260 27 10.8 9.4 3.7
2020-Feb-17 23:00 250 28 10.8 8.7 3.8
2020-Feb-17 22:00 240 28 10.8 8.2 3.8
2020-Feb-17 21:00 240 32 10.8 9.1 3.8
2020-Feb-17 20:00 240 31 10.8 9.5 3.8
2020-Feb-17 19:00 230 29 10.8 9.0 3.8
2020-Feb-17 18:00 240 29 10.810.1 3.8
2020-Feb-17 17:00 230 31 5.4 8.6 3.9
2020-Feb-17 16:00 230 27 5.4 8.8 3.9
2020-Feb-17 15:00 220 27 9.0 4.1
2020-Feb-17 14:00 230 29 9.1 4.6
2020-Feb-17 12:00 230 34 9.3 5.0
2020-Feb-17 11:00 240 34 9.6 5.8
2020-Feb-17 10:00 240 38 8.9 6.0
2020-Feb-17 09:00 230 36 8.2 5.8
2020-Feb-17 08:00 230 39 7.9 6.2
2020-Feb-17 07:00 230 45 7.7 6.4
2020-Feb-17 06:00 230 47 7.8 6.6
2020-Feb-17 05:00 220 45 7.7 7.2
2020-Feb-17 04:00 220 46 7.7 6.7
2020-Feb-17 03:00 220 46 7.7 7.2
2020-Feb-17 02:00 220 48 7.7 7.6
2020-Feb-17 01:00 220 48 7.5 6.6
2020-Feb-17 00:00 220 49 7.6 6.8